Location: Helsinki
(60.1699°N, 24.9384°E)
Time: 23:05:51
(UTC+02:00)

Transit 4A - Pass Details

Date: 27 October 2020
Orbit: 862 x 982 km, 66.8° (Epoch: 30 November)

Event Time Altitude Azimuth Distance (km) Brightness Sun altitude
Rises 22:32:24 0° 305° (NW) 3,690 11.8 -40.1°
Reaches altitude 10° 22:34:59 10° 307° (NW) 2,745 10.9 -40.2°
Enters shadow 22:38:05 30° 311° (NW) 1,677 9.5 -40.4°
